Change the Weather History Date:

Saturday, February 16, 2013

  Actual Average (KGON) Record (KGON)
Temperature  
Mean Temperature 32 °F -  
Max Temperature 37 °F 40 °F 57 °F (1976)
Min Temperature 28 °F 20 °F -2 °F (2015)
Degree Days  
Heating Degree Days 32    
Moisture  
Dew Point 31 °F    
Average Humidity 93    
Maximum Humidity 100    
Minimum Humidity 70    
Precipitation  
Precipitation 0.00 in - - ()
Sea Level Pressure  
Sea Level Pressure 29.86 in    
Wind  
Wind Speed 4 mph (North)    
Max Wind Speed 13 mph    
Max Gust Speed 18 mph    
Visibility 4 miles    
Events Fog , Snow    
Averages and records for this station are not official NWS values.
T = Trace of Precipitation, MM = Missing Value Source: NWS Daily Summary

Daily Weather History Graph

Daily Weather History Graph

Search for Another Location

Airport or City:

Trip Planner

Search our weather history database for the weather conditions in past years. The results will help you decide how hot, cold, wet, or windy it might be!

Date:

Astronomy

Feb. 16, 2013 Rise Set
Actual Time 6:40 AM EST 5:22 PM EST
Civil Twilight 6:12 AM EST 5:50 PM EST
Nautical Twilight 5:39 AM EST 6:23 PM EST
Astronomical Twilight 5:07 AM EST 6:55 PM EST
Moon 9:46 AM EST (2/16) No Moon Set
Length of Visible Light 11h 38m
Length of Day
10h 42m
Waxing Crescent, 39% of the Moon is Illuminated
Feb 16
Waxing Crescent
Feb 17
First Quarter
Feb 25
Full
Mar 4
Last Quarter
Mar 11
New

Hourly Weather History & Observations

Time (EST) Temp. Windchill Dew Point Humidity Pressure Visibility Wind Dir Wind Speed Gust Speed Precip Events Conditions
12:11 AM 28.4 °F - 28.4 °F 100% 29.95 in 0.5 mi Calm Calm - N/A Fog Light Freezing Fog
12:20 AM 28.4 °F - 28.4 °F 100% 29.95 in 0.2 mi Calm Calm - N/A Fog Light Freezing Fog
12:44 AM 28.4 °F - 28.4 °F 100% 29.94 in 0.2 mi Calm Calm - N/A Fog Light Freezing Fog
12:51 AM 30.2 °F 26.7 °F 30.2 °F 100% 29.93 in 0.8 mi East 3.5 mph - N/A   Overcast
12:53 AM 30.0 °F - 30.0 °F 100% 29.94 in 1.0 mi Calm Calm - N/A   Overcast
1:02 AM 30.2 °F - 30.2 °F 100% 29.93 in 2.0 mi Calm Calm - N/A   Mostly Cloudy
1:27 AM 28.4 °F - 28.4 °F 100% 29.93 in 3.0 mi Calm Calm - N/A   Clear
1:53 AM 30.0 °F 26.5 °F 30.0 °F 100% 29.93 in 2.5 mi NNE 3.5 mph - N/A   Clear
2:03 AM 30.2 °F - 30.2 °F 100% 29.93 in 2.5 mi Calm Calm - N/A   Scattered Clouds
2:13 AM 28.4 °F - 28.4 °F 100% 29.93 in 3.0 mi Calm Calm - N/A   Mostly Cloudy
2:24 AM 28.4 °F 24.6 °F 28.4 °F 100% 29.93 in 2.5 mi NW 3.5 mph - N/A   Overcast
2:46 AM 30.2 °F - 30.2 °F 100% 29.92 in 2.5 mi Calm Calm - N/A   Overcast
2:53 AM 30.0 °F - 30.0 °F 100% 29.91 in 2.0 mi Calm Calm - N/A   Overcast
3:08 AM 30.2 °F - 28.4 °F 93% 29.91 in 2.5 mi Calm Calm - N/A   Overcast
3:34 AM 30.2 °F 26.7 °F 30.2 °F 100% 29.91 in 3.0 mi North 3.5 mph - N/A   Overcast
3:50 AM 30.2 °F - 30.2 °F 100% 29.91 in 3.0 mi Calm Calm - N/A   Overcast
3:53 AM 30.9 °F - 30.9 °F 100% 29.91 in 3.0 mi Calm Calm - N/A   Overcast
4:03 AM 30.2 °F - 30.2 °F 100% 29.91 in 3.0 mi Calm Calm - N/A   Overcast
4:21 AM 33.8 °F 29.6 °F 33.8 °F 100% 29.90 in 6.0 mi North 4.6 mph - N/A   Overcast
4:53 AM 34.0 °F 27.2 °F 33.1 °F 96% 29.90 in 8.0 mi North 8.1 mph - N/A   Overcast
5:53 AM 34.0 °F 26.6 °F 30.9 °F 89% 29.91 in 10.0 mi North 9.2 mph - N/A   Scattered Clouds
6:53 AM 34.0 °F 26.0 °F 30.0 °F 85% 29.91 in 10.0 mi North 10.4 mph - N/A   Overcast
7:53 AM 35.1 °F 27.4 °F 30.0 °F 82% 29.93 in 10.0 mi North 10.4 mph 17.3 mph N/A   Overcast
8:51 AM 33.8 °F 25.3 °F 32.0 °F 93% 29.92 in 1.8 mi North 11.5 mph 18.4 mph 0.00 in Snow Light Snow
8:53 AM 34.0 °F 26.0 °F 32.0 °F 92% 29.92 in 1.5 mi North 10.4 mph 18.4 mph 0.00 in Snow Light Snow
9:01 AM 33.8 °F 24.8 °F 32.0 °F 93% 29.91 in 1.5 mi North 12.7 mph - 0.00 in Snow Light Snow
9:12 AM 33.8 °F 25.8 °F 32.0 °F 93% 29.91 in 3.0 mi North 10.4 mph - 0.00 in Snow Light Snow
9:29 AM 33.8 °F 26.4 °F 32.0 °F 93% 29.92 in 10.0 mi North 9.2 mph 17.3 mph 0.00 in   Overcast
9:53 AM 35.1 °F 27.4 °F 30.9 °F 85% 29.91 in 10.0 mi North 10.4 mph - 0.00 in   Overcast
10:30 AM 35.6 °F 28.6 °F 30.2 °F 81% 29.91 in 10.0 mi North 9.2 mph - N/A   Overcast
10:53 AM 36.0 °F 28.0 °F 30.0 °F 79% 29.91 in 10.0 mi North 11.5 mph - N/A   Overcast
11:53 AM 37.0 °F 29.8 °F 28.9 °F 73% 29.89 in 10.0 mi North 10.4 mph - N/A   Overcast
12:09 PM 37.4 °F 31.4 °F 28.4 °F 70% 29.88 in 10.0 mi North 8.1 mph - N/A   Overcast
12:53 PM 37.0 °F 32.4 °F 28.0 °F 70% 29.87 in 10.0 mi North 5.8 mph - N/A   Overcast
1:53 PM 36.0 °F 29.6 °F 30.0 °F 79% 29.85 in 5.0 mi North 8.1 mph - 0.00 in Snow Light Snow
2:53 PM 35.1 °F 31.0 °F 33.1 °F 92% 29.84 in 8.0 mi NNW 4.6 mph - 0.00 in   Overcast
3:04 PM 35.6 °F 30.7 °F 33.8 °F 93% 29.84 in 8.0 mi NNW 5.8 mph - 0.00 in   Overcast
3:37 PM 35.6 °F 27.1 °F 32.0 °F 87% 29.83 in 7.0 mi NNW 12.7 mph - 0.00 in Snow Light Snow
3:53 PM 35.1 °F 28.6 °F 32.0 °F 89% 29.82 in 4.0 mi North 8.1 mph - 0.00 in Snow Light Snow
4:32 PM 33.8 °F 27.0 °F 32.0 °F 93% 29.81 in 7.0 mi North 8.1 mph - 0.00 in   Overcast
4:53 PM 34.0 °F 28.0 °F 32.0 °F 92% 29.82 in 3.0 mi North 6.9 mph - 0.00 in Snow Light Snow
5:09 PM 33.8 °F 28.6 °F 32.0 °F 93% 29.82 in 2.5 mi NNW 5.8 mph - 0.00 in Snow Light Snow
5:13 PM 33.8 °F 29.6 °F 32.0 °F 93% 29.82 in 3.0 mi North 4.6 mph - 0.00 in Snow Light Snow
5:36 PM 33.8 °F - 32.0 °F 93% 29.83 in 2.0 mi Calm Calm - 0.00 in Snow Light Snow
5:44 PM 33.8 °F 29.6 °F 32.0 °F 93% 29.83 in 1.5 mi NNW 4.6 mph - 0.00 in Snow Light Snow
5:53 PM 33.1 °F 26.9 °F 32.0 °F 96% 29.83 in 2.0 mi NNW 6.9 mph - 0.00 in Snow Light Snow
6:04 PM 33.8 °F 28.6 °F 32.0 °F 93% 29.82 in 1.5 mi North 5.8 mph - 0.00 in Snow Light Snow
6:21 PM 33.8 °F 29.6 °F 32.0 °F 93% 29.81 in 1.2 mi North 4.6 mph - 0.00 in Snow Light Snow
6:28 PM 33.8 °F 29.6 °F 32.0 °F 93% 29.81 in 1.5 mi North 4.6 mph - 0.00 in Snow Light Snow
6:40 PM 33.8 °F 29.6 °F 32.0 °F 93% 29.81 in 3.0 mi North 4.6 mph - 0.00 in Snow Light Snow
6:50 PM 33.8 °F 28.6 °F 32.0 °F 93% 29.80 in 3.0 mi North 5.8 mph - 0.00 in Snow Light Snow
6:53 PM 33.1 °F 27.7 °F 32.0 °F 96% 29.80 in 3.0 mi North 5.8 mph - 0.00 in Snow Light Snow
7:53 PM 33.1 °F 26.9 °F 32.0 °F 96% 29.79 in 3.0 mi NNW 6.9 mph - 0.00 in Snow Light Snow
7:57 PM 33.8 °F 27.7 °F 32.0 °F 93% 29.79 in 2.5 mi North 6.9 mph - 0.00 in Snow Light Snow
8:34 PM 33.8 °F 26.4 °F 32.0 °F 93% 29.78 in 1.5 mi North 9.2 mph - 0.00 in Snow Light Snow
8:53 PM 32.0 °F 25.6 °F 32.0 °F 100% 29.77 in 1.5 mi North 6.9 mph - 0.00 in Snow Light Snow
9:20 PM 32.0 °F 24.8 °F 32.0 °F 100% 29.76 in 1.8 mi North 8.1 mph - 0.00 in Snow Light Snow
9:33 PM 32.0 °F 24.8 °F 32.0 °F 100% 29.75 in 1.8 mi North 8.1 mph - 0.00 in Snow Light Snow
9:53 PM 32.0 °F 24.2 °F 30.9 °F 96% 29.74 in 2.0 mi North 9.2 mph - 0.00 in Snow Light Snow
10:05 PM 32.0 °F 22.5 °F 30.2 °F 93% 29.73 in 2.5 mi North 12.7 mph - 0.00 in Snow Light Snow
10:10 PM 32.0 °F 22.5 °F 30.2 °F 93% 29.73 in 3.0 mi North 12.7 mph - 0.00 in Snow Light Snow
10:27 PM 32.0 °F 23.6 °F 28.4 °F 87% 29.72 in 10.0 mi North 10.4 mph - 0.00 in   Overcast
10:53 PM 30.9 °F 22.2 °F 28.9 °F 92% 29.70 in 10.0 mi North 10.4 mph - 0.00 in   Overcast
11:53 PM 30.0 °F 21.1 °F 26.1 °F 85% 29.67 in 3.0 mi North 10.4 mph - 0.00 in Snow Light Snow